Fort Morgan, CO

11:26 AM MST on November 20, 2017 (GMT -0700)
Fort Morgan

Weather History for KFMM - November, 2012

Change the Weather History Date:

Friday, November 30, 2012

  Actual Average (KAKO) Record (KAKO)
Temperature  
Mean Temperature 44 °F -  
Max Temperature 60 °F 41 °F 69 °F (1999)
Min Temperature 27 °F 16 °F -8 °F (1985)
Degree Days  
Heating Degree Days 22    
Moisture  
Dew Point 21 °F    
Average Humidity 46    
Maximum Humidity 81    
Minimum Humidity 21    
Precipitation  
Precipitation 0.00 in - - ()
Sea Level Pressure  
Sea Level Pressure 29.95 in    
Wind  
Wind Speed 4 mph ()    
Max Wind Speed 12 mph    
Max Gust Speed -    
Visibility 9.9 miles    
Events      
Averages and records for this station are not official NWS values.
T = Trace of Precipitation, MM = Missing Value Source: Averaged Metar Reports

Daily Weather History Graph

Daily Weather History Graph

Search for Another Location

Airport or City:

Trip Planner

Search our weather history database for the weather conditions in past years. The results will help you decide how hot, cold, wet, or windy it might be!

Date:

Astronomy

Nov. 30, 2012 Rise Set
Actual Time 6:58 AM MST 4:29 PM MST
Civil Twilight 6:28 AM MST 4:59 PM MST
Nautical Twilight 5:54 AM MST 5:33 PM MST
Astronomical Twilight 5:21 AM MST 6:06 PM MST
Moon 6:26 PM MST (11/30) 8:31 AM MST (11/30)
Length of Visible Light 10h 31m
Length of Day
9h 31m
Waning Gibbous, 96% of the Moon is Illuminated
Nov 30
Waning Gibbous
Dec 6
Last Quarter
Dec 13
New
Dec 19
First Quarter
Dec 28
Full

Hourly Weather History & Observations

Time (MST) Temp. Windchill Dew Point Humidity Pressure Visibility Wind Dir Wind Speed Gust Speed Precip Events Conditions
12:15 AM 35.6 °F 31.7 °F 21.7 °F 57% 30.06 in 10.0 mi West 4.6 mph - N/A   Clear
12:35 AM 36.1 °F 33.5 °F 22.1 °F 57% 30.06 in 10.0 mi West 3.5 mph - N/A   Clear
12:55 AM 38.3 °F 35.9 °F 21.7 °F 51% 30.06 in 10.0 mi West 3.5 mph - N/A   Clear
1:15 AM 36.7 °F 32.0 °F 21.4 °F 54% 30.06 in 10.0 mi WNW 5.8 mph - N/A   Clear
1:35 AM 39.0 °F 36.8 °F 22.1 °F 51% 30.06 in 10.0 mi West 3.5 mph - N/A   Clear
1:55 AM 39.4 °F 37.2 °F 21.9 °F 50% 30.07 in 10.0 mi West 3.5 mph - N/A   Clear
2:15 AM 36.0 °F 32.1 °F 21.7 °F 56% 30.08 in 10.0 mi West 4.6 mph - N/A   Clear
2:35 AM 30.0 °F 23.2 °F 21.6 °F 71% 30.07 in 10.0 mi WNW 6.9 mph - N/A   Clear
2:55 AM 33.1 °F 28.7 °F 22.8 °F 66% 30.07 in 10.0 mi West 4.6 mph - N/A   Clear
3:15 AM 39.0 °F - 22.8 °F 52% 30.06 in 10.0 mi Calm Calm - N/A   Clear
3:35 AM 40.6 °F - 22.6 °F 49% 30.06 in 10.0 mi Calm Calm - N/A   Clear
3:55 AM 40.1 °F - 22.1 °F 49% 30.05 in 10.0 mi Calm Calm - N/A   Clear
4:15 AM 39.9 °F - 22.6 °F 50% 30.05 in 10.0 mi Calm Calm - N/A   Clear
4:35 AM 28.6 °F 24.8 °F 21.6 °F 75% 30.05 in 10.0 mi WSW 3.5 mph - N/A   Clear
5:15 AM 27.7 °F 18.8 °F 22.5 °F 81% 30.05 in 10.0 mi West 9.2 mph - N/A   Clear
5:35 AM 30.2 °F 23.4 °F 22.6 °F 73% 30.04 in 10.0 mi West 6.9 mph - N/A   Clear
5:55 AM 29.5 °F 21.1 °F 21.6 °F 72% 30.05 in 10.0 mi West 9.2 mph - N/A   Clear
6:15 AM 30.6 °F 23.8 °F 21.2 °F 68% 30.05 in 10.0 mi West 6.9 mph - N/A   Clear
6:35 AM 28.4 °F 22.2 °F 20.8 °F 73% 30.06 in 10.0 mi WSW 5.8 mph - N/A   Clear
6:55 AM 27.3 °F 19.9 °F 20.3 °F 75% 30.05 in 10.0 mi WSW 6.9 mph - N/A   Clear
7:15 AM 27.9 °F 21.5 °F 20.8 °F 75% 30.05 in 10.0 mi West 5.8 mph - N/A   Clear
7:35 AM 29.1 °F 21.3 °F 21.9 °F 74% 30.05 in 10.0 mi West 8.1 mph - N/A   Clear
7:55 AM 31.1 °F 25.4 °F 22.5 °F 70% 30.05 in 10.0 mi WNW 5.8 mph - N/A   Clear
8:15 AM 33.4 °F 30.4 °F 24.4 °F 70% 30.04 in 10.0 mi West 3.5 mph - N/A   Clear
8:35 AM 34.9 °F 32.0 °F 24.4 °F 66% 30.05 in 10.0 mi West 3.5 mph - N/A   Clear
8:55 AM 38.7 °F 32.9 °F 23.5 °F 55% 30.04 in 10.0 mi West 8.1 mph - N/A   Clear
9:15 AM 41.2 °F 36.0 °F 23.0 °F 48% 30.05 in 10.0 mi West 8.1 mph - N/A   Clear
9:35 AM 43.3 °F 38.6 °F 23.2 °F 45% 30.04 in 10.0 mi WSW 8.1 mph - N/A   Clear
9:55 AM 44.6 °F 41.4 °F 23.2 °F 43% 30.03 in 10.0 mi West 5.8 mph - N/A   Clear
10:15 AM 46.6 °F - 23.2 °F 40% 30.03 in 10.0 mi West 4.6 mph - N/A   Clear
10:35 AM 48.2 °F - 23.2 °F 37% 30.02 in 10.0 mi Calm Calm - N/A   Clear
10:55 AM 52.2 °F - 23.0 °F 32% 30.00 in 10.0 mi WSW 4.6 mph - N/A   Clear
11:15 AM 55.0 °F - 21.9 °F 28% 29.98 in 10.0 mi SW 5.8 mph - N/A   Clear
11:35 AM 56.3 °F - 21.6 °F 26% 29.97 in 10.0 mi West 4.6 mph - N/A   Clear
11:55 AM 56.1 °F - 20.3 °F 25% 29.96 in 10.0 mi Calm Calm - N/A   Clear
12:15 PM 58.5 °F - 20.8 °F 23% 29.94 in 10.0 mi SSW 3.5 mph - N/A   Clear
12:35 PM 59.0 °F - 19.6 °F 22% 29.91 in 10.0 mi SSW 4.6 mph - N/A   Clear
12:55 PM 59.0 °F - 19.9 °F 22% 29.92 in 10.0 mi South 4.6 mph - N/A   Clear
1:15 PM 60.1 °F - 20.1 °F 21% 29.91 in 10.0 mi Calm Calm - N/A   Clear
1:35 PM 60.3 °F - 20.3 °F 21% 29.89 in 10.0 mi SSE 3.5 mph - N/A   Clear
1:55 PM 59.7 °F - 20.3 °F 22% 29.88 in 10.0 mi ESE 3.5 mph - N/A   Clear
2:15 PM 59.9 °F - 19.8 °F 21% 29.88 in 10.0 mi SE 3.5 mph - N/A   Clear
2:35 PM 59.0 °F - 19.8 °F 22% 29.88 in 10.0 mi SSE 4.6 mph - N/A   Clear
2:55 PM 57.4 °F - 20.8 °F 24% 29.88 in 10.0 mi Calm Calm - N/A   Clear
3:15 PM 57.2 °F - 21.0 °F 25% 29.87 in 10.0 mi Calm Calm - N/A   Clear
3:35 PM 54.9 °F - 21.4 °F 27% 29.87 in 10.0 mi ENE 4.6 mph - N/A   Clear
3:55 PM 52.7 °F - 21.0 °F 29% 29.87 in 10.0 mi Calm Calm - N/A   Clear
4:15 PM 50.2 °F - 20.3 °F 31% 29.87 in 5.0 mi NE 5.8 mph - N/A   Haze
4:35 PM 49.3 °F - 20.3 °F 32% 29.85 in 10.0 mi NE 6.9 mph - N/A   Clear
4:55 PM 46.8 °F - 19.8 °F 34% 29.85 in 10.0 mi NE 6.9 mph - N/A   Clear
5:15 PM 48.9 °F - 19.6 °F 31% 29.84 in 10.0 mi East 5.8 mph - N/A   Clear
5:35 PM 48.9 °F - 18.3 °F 30% 29.84 in 10.0 mi ENE 5.8 mph - N/A   Clear
5:55 PM 47.8 °F - 18.3 °F 31% 29.84 in 10.0 mi NE 4.6 mph - N/A   Clear
6:15 PM 45.5 °F 41.3 °F 19.0 °F 35% 29.84 in 10.0 mi NE 8.1 mph - N/A   Clear
6:35 PM 44.6 °F 38.8 °F 19.4 °F 37% 29.84 in 10.0 mi North 11.5 mph - N/A   Clear
6:55 PM 44.6 °F 40.7 °F 18.5 °F 35% 29.84 in 10.0 mi NNE 6.9 mph - N/A   Clear
7:15 PM 44.1 °F 38.1 °F 18.5 °F 36% 29.84 in 10.0 mi North 11.5 mph - N/A   Clear
7:35 PM 44.1 °F 39.0 °F 18.5 °F 36% 29.84 in 10.0 mi NNE 9.2 mph - N/A   Clear
7:55 PM 43.3 °F 38.1 °F 18.7 °F 37% 29.84 in 10.0 mi NNE 9.2 mph - N/A   Clear
8:15 PM 39.2 °F 33.6 °F 19.6 °F 45% 29.83 in 10.0 mi NE 8.1 mph - N/A   Clear
8:35 PM 41.5 °F 36.4 °F 19.4 °F 41% 29.84 in 10.0 mi ENE 8.1 mph - N/A   Clear
8:55 PM 39.0 °F 33.4 °F 19.9 °F 46% 29.84 in 10.0 mi NE 8.1 mph - N/A   Clear
9:15 PM 38.3 °F 35.9 °F 19.6 °F 47% 29.83 in 10.0 mi NE 3.5 mph - N/A   Clear
9:35 PM 38.3 °F 34.8 °F 20.1 °F 48% 29.83 in 10.0 mi East 4.6 mph - N/A   Clear
9:55 PM 39.4 °F 34.5 °F 21.2 °F 48% 29.83 in 10.0 mi NNE 6.9 mph - N/A   Clear
10:15 PM 39.0 °F 34.0 °F 21.2 °F 49% 29.82 in 10.0 mi NNE 6.9 mph - N/A   Clear
10:35 PM 37.4 °F - 20.8 °F 51% 29.82 in 10.0 mi Calm Calm - N/A   Clear
10:55 PM 38.5 °F - 21.0 °F 50% 29.81 in 10.0 mi Calm Calm - N/A   Clear
11:15 PM 35.1 °F 29.3 °F 21.0 °F 57% 29.82 in 10.0 mi West 6.9 mph - N/A   Clear
11:35 PM 32.2 °F 27.7 °F 21.4 °F 64% 29.82 in 10.0 mi West 4.6 mph - N/A   Clear
11:55 PM 33.6 °F 28.4 °F 21.6 °F 61% 29.81 in 10.0 mi WNW 5.8 mph - N/A   Clear